Regional Weather Roundup
Issued by NWS

Home | Current Version | Previous Version | Graphics & Text | Print | Product List | Glossary On
Versions: 1 2 3 4 5 6 7 8 9 10 11 12 13 14 15 16 17 18 19 20 21 22 23 24 25 26 27 28 29 30 31 32 33 34 35 36 37 38 39 40 41 42 43 44 45 46 47 48 49 50
000
ASUS43 KOAX 271002
RWRNE

WEATHER ROUNDUP FOR NEBRASKA
NATIONAL WEATHER SERVICE OMAHA NE
400 AM CST FRI FEB 27 2015

NOTES: SATELLITE DATA IS BEING USED TO AUGMENT CLOUD COVER ABOVE
       12000 FEET.
       "FAIR" INDICATES FEW OR NO CLOUDS BELOW 12,000 FEET WITH NO
       SIGNIFICANT WEATHER AND/OR OBSTRUCTIONS TO VISIBILITY.

  * THESE STATIONS DO NOT REPORT WEATHER SUCH AS RAIN...SNOW OR FOG.

NEZ001>004-019>022-054>056-271100-
NEBRASKA PANHANDLE

CITY           SKY/WX    TMP DP  RH WIND       PRES   REMARKS
SCOTTSBLUFF    LGT SNOW   7   1  76 SE14      30.22F WCI -10
ALLIANCE       CLOUDY     2  -3  80 SE10      30.24F WCI -14
CHADRON        PTCLDY    -7 -13  75 CALM      30.30F
SIDNEY         CLOUDY     4  -3  73 SE10      30.20F WCI -11
$$

NEZ057>060-069>072-079>082-271100-
SOUTHWEST NEBRASKA

CITY           SKY/WX    TMP DP  RH WIND       PRES   REMARKS
NORTH PLATTE   CLEAR     -3  -8  79 CALM      30.41F
IMPERIAL       CLOUDY     6  -4  63 SE9       30.34F WCI  -8
MCCOOK         CLOUDY     8  -2  63 E7        30.43F WCI  -3
$$

NEZ005>010-023>029-035>040-094-271100-
NORTH CENTRAL NEBRASKA

CITY           SKY/WX    TMP DP  RH WIND       PRES   REMARKS
VALENTINE      CLEAR     -6 -11  79 W3        30.41F
AINSWORTH      CLEAR     -4  -9  80 SW5       30.41F WCI -15
BROKEN BOW     CLEAR     -8 -12  83 N3        30.42F
ORD            CLEAR     -8 -14  74 SW3       30.48F
$$

NEZ041-046>049-061>064-073>077-083>087-271100-
SOUTH CENTRAL NEBRASKA

CITY           SKY/WX    TMP DP  RH WIND       PRES   REMARKS
GRAND ISLAND   CLEAR     -3  -8  79 NW3       30.52F
AURORA         CLEAR     -5  -9  80 N6        30.51F WCI -17
HASTINGS       CLEAR     -3  -9  75 SW5       30.49F WCI -13
HEBRON         CLEAR     -1  -6  80 CALM      30.55F
HOLDREGE       CLEAR      0  -7  74 CALM      30.46F
KEARNEY *      CLEAR      0  -8  71 NW3       30.47F
YORK             N/A     -2  -8  78 N3        30.53F
$$

NEZ011>018-030>034-042>045-271100-
NORTHEAST NEBRASKA

CITY           SKY/WX    TMP DP  RH WIND       PRES   REMARKS
NORFOLK        CLEAR     -4  -9  79 SW3       30.53F
ALBION         CLEAR     -7 -13  76 CALM      30.52F
BLAIR          CLEAR     -2  -8  76 NW5       30.56S WCI -12
COLUMBUS *     CLEAR     -2 -15  55 CALM      30.56F
FREMONT        CLEAR     -3  -8  79 W3        30.58F
TEKAMAH        CLEAR     -3  -9  75 W6        30.60F WCI -15
WAYNE          CLEAR     -9 -14  78 SW3       30.56S
$$

NEZ050>053-065>068-078-088>093-271100-
SOUTHEAST NEBRASKA

CITY           SKY/WX    TMP DP  RH WIND       PRES   REMARKS
LINCOLN        CLEAR     -5  -9  83 N6        30.59F WCI -18
OMAHA EPPLEY   CLEAR     -2  -7  79 NW6       30.60F WCI -14
BEATRICE       CLEAR     -2  -5  86 CALM      30.57S
FALLS CITY     CLEAR     -3  -8  79 NW5       30.59F WCI -13
NEBRASKA CITY  CLEAR     -1  -8  71 NW6       30.58S WCI -12
$$

NEZ044-045-051>053-067-271100-
OMAHA AREA

CITY           SKY/WX    TMP DP  RH WIND       PRES   REMARKS
OMAHA EPPLEY   CLEAR     -2  -7  79 NW6       30.60F WCI -14
BLAIR          CLEAR     -2  -8  76 NW5       30.56S WCI -12
FREMONT        CLEAR     -3  -8  79 W3        30.58F
OFFUTT AFB     CLEAR      0  -6  75 NW6       30.59S WCI -12
WAHOO          FAIR      -2  -8  76 NW7       30.58F WCI -16
$$


USA.gov is the U.S. government's official web portal to all federal, state and local government web resources and services.